Portada
METAR-TAF:

METAR-TAF

Aeropuertos :

Kake, Alaska, Estados Unidos

latitud: 56-57N, longitud: 133-54W, altitud: 52 m

Observación

El informe se hizo hace 49 minutos, a las 07:56 UTC
Viento 5 kt del este-noreste
Temperatura 8°C
Humedad 93%
Presión 1029 hPa
Visibilidad: 16.1 km
Cielo despejado

METAR: PAFE 180756Z AUTO 06005KT 10SM CLR 08/07 A3039 RMK AO2 SLP304 T00780072

Hora: 00:45 (08:45 UTC)


TAF: falta

Observaciones y pronósticos meteorológicos de más de 4000 aeropuertos (mensajes METAR y TAF).

Los puntos amarillos y rojos representan las estaciones disponibles.

Ponga el ratón en el punto deseado para ver el nombre de la estación.

Haga clic para ver las observaciones y los pronósticos meteorológicos.

Para cambiar el mapa : haga clic en los botones verdes con una cruz de color negro para hacer un zoom, en el botón verde con un guión para alejar o en las flechas verdes para mapas adyacentes.


METAR-TAF: